FW9721 Weather Reports


Display with metric or nautical units.
time (UTC)temp
F
wind
direction
speed
MPH
gust
MPH
rain 1hr
in
rain 24hr
in
rain mn
in
humidity
%
barometer
mb
20260502123051 71 335 16.0 22.0 0.00 0.00 0.00 82 1013.4
20260502121546 71 356 13.0 25.0 0.00 0.00 0.00 82 1013.3
20260502114603 71 342 24.0 29.0 0.00 0.00 0.00 81 1012.5
20260502113044 71 357 18.0 30.0 0.00 0.00 0.00 81 1012.3
20260502111549 72 345 22.0 32.0 0.00 0.00 0.00 81 1012.2
20260502110041 72 339 21.0 30.0 0.00 0.00 0.00 81 1012.3
20260502104549 72 333 24.0 35.0 0.00 0.00 0.00 81 1012.0
20260502103044 72 22 19.0 33.0 0.00 0.00 0.00 80 1012.0
20260502101600 73 341 20.0 33.0 0.00 0.00 0.00 80 1011.6
20260502070059 75 326 29.0 37.0 0.00 0.00 0.00 82 1010.8
20260502064614 75 335 22.0 38.0 0.00 0.00 0.00 84 1010.6
20260502063057 75 334 26.0 39.0 0.00 0.00 0.00 86 1010.7
20260502061550 75 325 28.0 45.0 0.00 0.00 0.00 87 1010.6
20260502060050 80 23 16.0 22.0 0.00 0.00 0.00 90 1009.8
20260502054607 80 22 13.0 19.0 0.00 0.00 0.00 90 1009.5
20260502053040 80 20 12.0 18.0 0.00 0.00 0.00 90 1009.4
20260502051548 80 27 13.0 20.0 0.00 0.00 0.00 90 1009.3
20260502050049 80 29 13.0 21.0 0.00 0.00 0.00 90 1009.1
20260502044542 80 46 13.0 18.0 0.00 0.00 0.00 90 1008.9
20260502043107 80 46 11.0 20.0 0.00 0.00 0.00 90 1008.7
20260502041546 80 30 14.0 19.0 0.00 0.00 0.00 90 1008.6
20260502040051 80 352 11.0 18.0 0.00 0.00 0.00 90 1008.3
20260502034545 80 13 9.0 15.0 0.00 0.00 0.00 90 1007.7
20260502033043 80 51 9.0 12.0 0.00 0.00 0.00 90 1007.3
20260502031540 80 21 8.0 12.0 0.00 0.00 0.00 90 1007.2
20260502030046 80 24 7.0 13.0 0.00 0.00 0.00 90 1007.1
20260502024547 80 39 8.0 12.0 0.00 0.00 0.00 90 1006.7
20260502023045 80 68 10.0 14.0 0.00 0.00 0.00 90 1006.2
20260502021543 80 60 10.0 15.0 0.00 0.00 0.00 90 1005.9
20260502020048 80 77 10.0 14.0 0.00 0.00 0.00 89 1005.7
20260502014541 80 98 12.0 15.0 0.00 0.00 0.00 89 1005.2
20260502013052 80 82 10.0 16.0 0.00 0.00 0.00 89 1004.7
20260502011551 80 66 12.0 16.0 0.00 0.00 0.00 89 1004.5
20260502010043 81 82 13.0 17.0 0.00 0.00 0.00 88 1004.1
20260502004547 81 102 11.0 17.0 0.00 0.00 0.00 88 1003.7
20260502003046 81 74 13.0 21.0 0.00 0.00 0.00 88 1003.5
20260502001546 81 88 15.0 21.0 0.00 0.00 0.00 87 1003.4
20260502000047 81 84 11.0 19.0 0.00 0.00 0.00 87 1003.3
20260501234546 81 92 11.0 19.0 0.00 0.00 0.00 87 1003.2
20260501233044 81 98 12.0 23.0 0.00 0.00 0.00 86 1003.0
20260501231540 82 103 13.0 21.0 0.00 0.00 0.00 86 1002.6
20260501230039 82 104 17.0 21.0 0.00 0.00 0.00 85 1002.6
20260501224540 82 103 18.0 24.0 0.00 0.00 0.00 85 1002.8
20260501223038 82 119 15.0 22.0 0.00 0.00 0.00 84 1002.9
20260501221542 82 106 15.0 23.0 0.00 0.00 0.00 83 1003.0
20260501220041 82 97 11.0 20.0 0.00 0.00 0.00 83 1003.1
20260501214548 82 98 18.0 23.0 0.00 0.00 0.00 83 1003.3
20260501213050 82 102 14.0 22.0 0.00 0.00 0.00 83 1003.4
20260501211552 82 97 14.0 20.0 0.00 0.00 0.00 83 1003.5
20260501210044 82 112 12.0 22.0 0.00 0.00 0.00 84 1003.6
20260501204552 82 166 13.0 20.0 0.00 0.00 0.00 84 1003.9
20260501203041 81 49 17.0 21.0 0.00 0.00 0.00 86 1004.0
20260501201544 81 94 17.0 21.0 0.00 0.00 0.00 86 1004.6
20260501200048 81 85 17.0 21.0 0.00 0.00 0.00 86 1004.9
20260501194548 81 85 17.0 21.0 0.00 0.00 0.00 85 1005.2
20260501193045 82 98 15.0 20.0 0.00 0.00 0.00 84 1005.4
20260501191544 81 94 15.0 19.0 0.00 0.00 0.00 84 1005.5
20260501190044 81 89 16.0 22.0 0.00 0.00 0.00 83 1006.0
20260501184546 81 110 15.0 21.0 0.00 0.00 0.00 84 1006.3
20260501183045 81 104 19.0 23.0 0.00 0.00 0.00 84 1006.5
20260501181546 81 95 16.0 21.0 0.00 0.00 0.00 84 1006.8
20260501180049 81 91 18.0 21.0 0.00 0.00 0.00 84 1007.1
20260501174549 81 92 16.0 20.0 0.00 0.00 0.00 83 1007.3
20260501173049 81 77 17.0 19.0 0.00 0.00 0.00 84 1007.5
20260501171555 81 77 17.0 21.0 0.00 0.00 0.00 84 1007.5
20260501170051 81 68 14.0 20.0 0.00 0.00 0.00 84 1007.6
20260501164556 80 74 17.0 21.0 0.00 0.00 0.00 84 1007.9
20260501163101 81 69 13.0 18.0 0.00 0.00 0.00 85 1008.1
20260501161551 81 82 14.0 18.0 0.00 0.00 0.00 85 1008.1
20260501160051 80 71 13.0 18.0 0.00 0.00 0.00 86 1008.2
20260501154555 80 54 14.0 17.0 0.00 0.00 0.00 87 1008.2
20260501153047 79 74 15.0 18.0 0.00 0.00 0.00 88 1008.1
20260501151601 80 73 10.0 14.0 0.00 0.00 0.00 89 1008.3
20260501150049 79 49 11.0 14.0 0.00 0.00 0.00 89 1008.2
20260501144552 79 82 13.0 17.0 0.00 0.00 0.00 89 1008.0
20260501143053 79 82 12.0 17.0 0.00 0.00 0.00 89 1007.9